Flag Weather past 2 weeks in Lincoln, Nebraska, U.S.A.

Now
44 °F

Overcast.


Feels Like: 35 °F
Forecast: 34 / 50 °F
Wind: 25 mph from North

Location: Lincoln Municipal Airport

Current Time: Nov 23, 2014 at 4:34:58 PM

Latest Report: Nov 23, 2014 at 3:54 PM


Visibility: 10 mi

Pressure: 29.54 "Hg

Humidity: 63%

Dew point: 32 °F

Location of LincolnLocation

Historic Weather in Lincoln — Graph

°F

Lincoln temperature yesterday

Maximum temperature yesterday: 58 °F (at 2:54 PM)
Minimum temperature yesterday: 37 °F (at 12:54 AM)
Average temperature yesterday: 47 °F

Past Weeks' High & Low Weather Summary

 TemperatureHumidityPressure
High65 °F (Nov 9, 1:54 PM)93% (Nov 22, 6:54 AM)30.67 "Hg (Nov 22, 6:54 AM)
Low4 °F (Nov 14, 6:54 AM)34% (Nov 9, 1:54 PM)29.36 "Hg (Nov 10, 6:54 AM)
Average28 °F66%30.16 "Hg
* Reported Nov 8 2:54 PM — Nov 23 2:54 PM, Lincoln, Weather by CustomWeather, © 2014

Note: Actual official high and low records may vary slightly from our data, if they occured in-between our weather recording intervals... More about our weather records

Advertising

Lincoln weather history for previous 24 hours

 ConditionsComfort  
Time TempWeatherWind HumidityBarometerVisibility
2:54 PM
Nov 23
43 °FMore clouds than sun.14 mph76%29.54 "Hg10 mi
1:54 PM44 °FMostly cloudy.30 mph71%29.52 "Hg10 mi
12:54 PM46 °FOvercast.31 mph66%29.52 "Hg10 mi
11:54 AM47 °FOvercast.26 mph69%29.51 "Hg10 mi
10:54 AM48 °FMostly cloudy.30 mph68%29.52 "Hg10 mi
10:01 AM48 °FMostly cloudy.22 mph71%29.51 "Hg10 mi
8:54 AM53 °FMostly cloudy.6 mph89%29.49 "Hg10 mi
8:03 AM53 °FMore clouds than sun.7 mph86%29.50 "Hg10 mi
7:54 AM53 °FMostly cloudy.7 mph86%29.49 "Hg10 mi
6:54 AM54 °FMostly cloudy.9 mph83%29.47 "Hg10 mi
5:54 AM54 °FOvercast.12 mph83%29.45 "Hg10 mi
4:54 AM54 °FOvercast.14 mph83%29.45 "Hg10 mi
3:54 AM54 °FOvercast.12 mph86%29.46 "Hg10 mi
2:54 AM55 °FMostly cloudy.12 mph83%29.49 "Hg10 mi
1:54 AM56 °FOvercast.12 mph84%29.49 "Hg10 mi
12:54 AM56 °FOvercast.10 mph84%29.53 "Hg10 mi
11:54 PM
Nov 22
55 °FOvercast.10 mph87%29.55 "Hg10 mi
10:54 PM55 °FPassing clouds.14 mph87%29.57 "Hg10 mi
9:54 PM57 °FMostly cloudy.16 mph83%29.58 "Hg10 mi
8:54 PM58 °FMostly cloudy.16 mph81%29.59 "Hg10 mi
7:54 PM57 °FOvercast.17 mph83%29.60 "Hg9 mi
6:54 PM57 °FOvercast.23 mph81%29.58 "Hg9 mi
5:54 PM55 °FOvercast.16 mph83%29.60 "Hg8 mi
4:54 PM52 °FSunny.10 mph80%29.63 "Hg8 mi
Weather by CustomWeather, © 2014

See weather overviewHow to use our weather pages